Regional Weather Roundup
Issued by NWS Cleveland, OH

Home | Current Version | Previous Version | Text Only | Print | Product List | Glossary Off
Versions: 1 2 3 4 5 6 7 8 9 10 11 12 13 14 15 16 17 18 19 20 21 22 23 24 25 26 27 28 29 30 31 32 33 34 35 36 37 38 39 40 41 42 43 44 45 46 47 48 49 50

000
ASUS41 KCLE 201502
RWRCLE
OHIO REGIONAL WEATHER ROUNDUP
NATIONAL WEATHER SERVICE CLEVELAND, OH
1100 AM EDT WED AUG 20 2014

NOTE: "FAIR" INDICATES FEW OR NO CLOUDS BELOW 12,000 FEET WITH NO
SIGNIFICANT WEATHER AND/OR OBSTRUCTIONS TO VISIBILITY.

OHZ001>008-015>018-024>027-034-035-043-044-201600-
   NORTHWEST OHIO

CITY           SKY/WX    TMP DP  RH WIND       PRES   REMARKS
DEFIANCE       SUNNY     76  68  76 VRB3      29.89R
FINDLAY        MOSUNNY   76  68  76 SW8       29.89R
TOLEDO EXPRESS MOSUNNY   75  68  78 W5        29.88R
TOLEDO EXEC    MOSUNNY   75  67  76 SW8       29.88R
LIMA           SUNNY     76  69  79 SW8       29.92R
$$

OHZ009>014-019>023-028>033-038-089-201600-
   NORTHEAST OHIO

CITY           SKY/WX    TMP DP  RH WIND       PRES   REMARKS
CLE-HOPKINS    MOSUNNY   74  67  78 S14       29.90S
CLE-LAKEFRONT  MOSUNNY   76  66  71 S12       29.86F
CUY CO. ARPT   MOSUNNY   77  68  73 S12       29.89S
LORAIN-ELYRIA  PTSUNNY   76  68  76 SW9       29.90R
ASHTABULA      PTSUNNY   71  66  84 S12       29.92R
AKRON-CANTON   PTSUNNY   73  64  73 S10       29.93S
WOOSTER        CLOUDY    73  67  81 S10       29.93S
MANSFIELD      CLOUDY    74  68  81 SW7       29.93R
YOUNGSTOWN     CLOUDY    71  66  84 SE8       29.92S
$$

OHZ042-051>053-060>062-070>072-077>081-201600-
  SOUTHWEST OHIO

CITY           SKY/WX    TMP DP  RH WIND       PRES   REMARKS
CINC-COVINGTON MOSUNNY   76  70  82 SW5       29.96R
CINC-LUNKEN    SUNNY     76  70  82 VRB3      29.96R
HAMILTON       MOSUNNY   79  71  76 VRB5      29.96R
DAYTON         MOSUNNY   78  69  73 SW7       29.95R
WRIGHT-PAT AFB DRIZZLE   77  68  72 SW6       29.94R
DAYTON GENERAL SUNNY     76  69  79 SW6       29.95R
WILMINGTON     MOSUNNY   75  67  76 W10       29.96R
$$

OHZ036-037-039>041-045>050-054>059-063>069-073>076-082>088-201600-
  CENTRAL AND SOUTHEAST OHIO

CITY           SKY/WX    TMP DP  RH WIND       PRES   REMARKS
COLUMBUS       MOSUNNY   77  65  66 S7        29.93R
OSU AIRPORT    SUNNY     77  66  68 VRB5      29.92S
BOLTON FIELD   SUNNY     75  70  83 SW8       29.94S
RICKENBACK AFB MOSUNNY   77  63  61 S7        29.93S
NEWARK         PTSUNNY   75  66  73 SW7       29.94R
MARION         MOSUNNY   76  68  76 W6        29.92R
LANCASTER      SUNNY     76  65  68 SW6       29.94S
ZANESVILLE     PTSUNNY   75  67  76 VRB3      29.95R
NEW PHILLY     CLOUDY    71  66  84 S7        29.95S
$$


USA.gov is the U.S. government's official web portal to all federal, state and local government web resources and services.